Regional Weather Roundup
Issued by NWS

Home | Current Version | Previous Version | Text Only | Print | Product List | Glossary On
Versions: 1 2 3 4 5 6 7 8 9 10 11 12 13 14 15 16 17 18 19 20 21 22 23 24 25 26 27 28 29 30 31 32 33 34 35 36 37 38 39 40 41 42 43 44 45 46 47 48 49 50
000
ASUS43 KTOP 261108
RWRKS

WEATHER ROUNDUP FOR KANSAS
NATIONAL WEATHER SERVICE GOODLAND KS
500 AM CST MON JAN 26 2015

NOTE:  "FAIR" INDICATES FEW OR NO CLOUDS BELOW 12,000 FEET WITH NO
SIGNIFICANT WEATHER AND/OR OBSTRUCTIONS TO VISIBILITY.

KSZ001>006-013>018-027>032-041>047-261200-
NORTHWEST KANSAS

CITY           SKY/WX    TMP DP  RH WIND       PRES   REMARKS
GOODLAND       PTCLDY    38  30  73 W13       30.10S WCI  30
HAYS           CLEAR     34  23  64 NW9       30.03F
HILL CITY      CLEAR     37  30  75 W8        30.02F
RUSSELL        CLEAR     31  25  78 SW12      30.00F WCI  22
$$

KSZ061>065-074>080-084>089-261200-
SOUTHWEST KANSAS

CITY           SKY/WX    TMP DP  RH WIND       PRES   REMARKS
DODGE CITY     CLEAR     40  28  62 W17       30.09F WCI  31
ELKHART          N/A     39  26  59 W13         N/A  WCI  31
GARDEN CITY    CLEAR     36  29  75 W10       30.11S WCI  28
GREAT BEND     CLEAR     32  21  64 W12       30.05S WCI  23
LIBERAL        CLEAR     37  28  70 W12       30.15F WCI  30
PRATT          CLEAR     32  27  80 SW10      30.07F WCI  24
$$

KSZ066>073-081>083-090>101-261200-
SOUTHEAST KANSAS

CITY           SKY/WX    TMP DP  RH WIND       PRES   REMARKS
CHANUTE        CLEAR     24  24 100 CALM      30.10F
COFFEYVILLE    PTCLDY    26  24  92 CALM      30.13F
HUTCHINSON     CLEAR     28  24  85 S5        30.07F
MEDICINE LODGE   N/A     28  23  81 CALM      30.09F
NEWTON         CLEAR     28  21  74 SW8       30.09F
PARSONS        CLEAR     22  20  92 CALM      30.13F
WICHITA INTL   PTCLDY    29  25  85 SW9       30.09F
WICHITA JABRA  CLEAR     32  28  85 SW9       30.08F
WICHITA MCCONL CLEAR     27  24  89 SW5       30.10F
WINFIELD       CLEAR     26  24  92 CALM      30.13F
$$

KSZ007>012-019>026-033>040-048>060-102>105-261200-
NORTHEAST KANSAS

CITY           SKY/WX    TMP DP  RH WIND       PRES   REMARKS
CONCORDIA      CLEAR     35  29  78 SW18      29.97F WCI  24
EMPORIA        MOCLDY    30  27  88 SW8       30.06F
LAWRENCE       PTCLDY    19  17  92 E3        30.06F
MANHATTAN      CLEAR     29  27  92 SW8       30.03F
MARYSVILLE     CLEAR     32  28  86 SW7       29.99F
OLATHE IND     CLEAR     26  25  96 SW7       30.06F
OLATHE EXE     CLEAR     25  24  96 S3        30.05F FOG
SALINA         CLEAR     28  24  85 S7        30.04F
TOPEKA BILLARD CLEAR     24  23  96 CALM      30.05F FOG
TOPEKA FORBES  CLEAR     26  23  88 SW7       30.04F
$$


USA.gov is the U.S. government's official web portal to all federal, state and local government web resources and services.